{"data":{"norad_id":67175,"epoch":"2026-09-20T19:11:08.703456Z","epoch_age_seconds":52338,"freshness":"FRESH","line1":"1 67175U 25303N   26263.79940629  .00014047  00000+0  51895-3 0  9990","line2":"2 67175  43.0047 288.9307 0001617 277.6222  82.4446 15.27583049 42576","mean_motion":15.27583049,"eccentricity":0.0001617,"inclination_deg":43.0047,"raan_deg":288.9307,"arg_perigee_deg":277.6222,"mean_anomaly_deg":82.4446,"bstar":0.00051895,"rev_number":4257,"period_min":94.266560560663,"perigee_km":481.93051393652,"apogee_km":484.14941856741,"semimajor_km":6861.176966252,"source":"CELESTRAK","updated_at":"2026-09-21T09:00:36.112602Z"}}